Date,TemperatureHighF,TemperatureAvgF,TemperatureLowF,DewpointHighF,DewpointAvgF,DewpointLowF,HumidityHigh,HumidityAvg,HumidityLow,PressureMaxIn,PressureMinIn,WindSpeedMaxMPH,WindSpeedAvgMPH,GustSpeedMaxMPH,PrecipitationSumIn
2012-12-1,48.0,42.5,38.0,-99.9,-99.9,-99.9,0,0,100,0.00,40.00,82,62,0,0.00
2012-12-2,55.0,44.9,38.0,-99.9,-99.9,-99.9,0,0,100,0.00,40.00,66,-57,0,0.00
2012-12-3,43.0,32.1,27.0,-99.9,-99.9,-99.9,0,0,100,0.00,40.00,94,51,0,0.00
2012-12-4,43.0,35.8,28.0,-99.9,-99.9,-99.9,0,0,100,0.00,40.00,60,-4,0,0.00
2012-12-5,50.0,42.8,39.0,-99.9,-99.9,-99.9,0,0,100,0.00,40.00,73,12,0,0.01
2012-12-6,41.0,33.3,28.0,-99.9,-99.9,-99.9,0,0,100,0.00,40.00,105,30,0,0.00
2012-12-7,33.0,30.1,24.0,-99.9,-99.9,-99.9,0,0,100,0.00,40.00,83,71,0,0.00
2012-12-8,27.0,24.3,11.0,-99.9,-99.9,-99.9,0,0,100,0.00,40.00,105,86,0,0.00
2012-12-9,11.0,7.5,4.0,-99.9,-99.9,-99.9,0,0,100,0.00,40.00,104,92,0,0.00
2012-12-10,22.0,17.3,8.0,-99.9,-99.9,-99.9,0,0,100,0.00,40.00,107,3,0,0.02
2012-12-11,27.0,19.4,6.0,-99.9,-99.9,-99.9,0,0,100,0.00,40.00,107,23,0,0.03
2012-12-12,38.0,32.0,26.0,-99.9,-99.9,-99.9,0,0,100,0.00,40.00,80,15,0,0.01
2012-12-13,41.0,33.3,26.0,-99.9,-99.9,-99.9,0,0,100,0.00,40.00,71,-32,0,0.00
2012-12-14,40.0,33.1,26.0,-99.9,-99.9,-99.9,0,0,100,0.00,40.00,84,57,0,0.00
2012-12-15,32.0,29.0,24.0,-99.9,-99.9,-99.9,0,0,100,0.00,40.00,104,94,0,0.00
2012-12-16,26.0,22.8,20.0,-99.9,-99.9,-99.9,0,0,100,0.00,40.00,108,88,0,0.00
2012-12-17,34.0,27.0,22.0,-99.9,-99.9,-99.9,0,0,100,0.00,40.00,112,16,0,0.01
2012-12-18,24.0,20.0,15.0,-99.9,-99.9,-99.9,0,0,100,0.00,40.00,111,95,0,0.01
2012-12-19,15.0,9.5,1.0,-99.9,-99.9,-99.9,0,0,100,0.00,40.00,108,3,0,0.01
2012-12-20,28.0,18.5,5.0,-99.9,-99.9,-99.9,0,0,100,0.00,40.00,94,-14,0,0.02
2012-12-21,40.0,33.4,26.0,-99.9,-99.9,-99.9,0,0,100,0.00,40.00,45,-55,0,0.01
2012-12-22,42.0,35.4,27.0,-99.9,-99.9,-99.9,0,0,100,0.00,40.00,49,-17,0,0.01
2012-12-23,34.0,29.4,24.0,-99.9,-99.9,-99.9,0,0,100,0.00,40.00,82,-77,0,0.01
2012-12-24,31.0,23.9,13.0,-99.9,-99.9,-99.9,0,0,100,0.00,40.00,110,51,0,0.01
2012-12-25,20.0,12.4,2.0,-99.9,-99.9,-99.9,0,0,100,0.00,40.00,107,6,0,0.00
2012-12-26,34.0,23.2,17.0,-99.9,-99.9,-99.9,0,0,100,0.00,40.00,111,6,0,0.01
2012-12-27,19.0,13.3,9.0,-99.9,-99.9,-99.9,0,0,100,0.00,40.00,111,53,0,0.00
2012-12-28,19.0,13.5,10.0,-99.9,-99.9,-99.9,0,0,100,0.00,40.00,105,94,0,0.00
2012-12-29,35.0,22.0,13.0,-99.9,-99.9,-99.9,0,0,100,0.00,40.00,82,-34,0,0.01
2012-12-30,28.0,21.6,15.0,-99.9,-99.9,-99.9,0,0,100,0.00,40.00,101,-30,0,0.01
2012-12-31,21.0,14.4,7.0,-99.9,-99.9,-99.9,0,0,100,0.00,40.00,107,-94,0,0.00